{"data":{"norad_id":55786,"epoch":"2026-05-24T18:59:20.947488Z","epoch_age_seconds":88999,"freshness":"FRESH","line1":"1 55786U 23028AX  26144.79121467 -.02065343  00000+0 -20186+0 0  9990","line2":"2 55786  70.0021  12.7840 0021748 146.6506 213.6025 14.92810761178414","mean_motion":14.92810761,"eccentricity":0.0021748,"inclination_deg":70.0021,"raan_deg":12.784,"arg_perigee_deg":146.6506,"mean_anomaly_deg":213.6025,"bstar":-0.20186,"rev_number":17841,"period_min":96.462327149583,"perigee_km":574.02373388995,"apogee_km":604.32875958797,"semimajor_km":6967.313246739,"source":"CELESTRAK","updated_at":"2026-05-25T13:38:17.887384Z"}}